Location: Civry
(47.2902°N, 4.6156°E)
Time: 18:04:25
(UTC+00:00)

NOSS 3-4 (C) - Pass Details

Date: 09 April 2020
Orbit: 897 x 1316 km, 63.4° (Epoch: 21 May)

Event Time Altitude Azimuth Distance (km) Brightness Sun altitude
Rises 19:25:02 0° 318° (NW) 3,832 8.0 -10.8°
Reaches altitude 10° 19:27:35 10° 316° (NW) 2,932 7.2 -11.2°
Maximum altitude 19:34:32 67° 236° (SW) 1,255 4.2 -12.3°
Drops below altitude 10° 19:42:11 10° 156° (SSE) 3,211 5.7 -13.4°
Enters shadow 19:42:37 - 155° (SSE) 3,362 5.8 -13.5°
